Infomails.de



www.awekas.at



Wetterübersicht - Penzberg,Oberbayern
N 47° 45' 25" O 11° 22' 5 " - 606 m über NN
Wetterstation: VantagePro Plus
CallSign-ID APRS: CW0334
Datum Dienstag, 23. September 2014
Zeit 18:18 (-2h = UTC-Zeit)
Temperatur Außen
aktuell
14,8 °C
Min.(02:51)
3,9 °C
(2013:) 5,8 °C (04:42)
Max.(15:55)
17,7 °C
(2013:) 21,7 °C (16:06)
Durchschnitt
10,0 °C
(2013:) 12,6 °C
Durchschnitt gestern: 11,0 °C

Max. gestern: 14,6 °C
Luftfeuchte Außen
aktuell
54 %
Min.(15:29)
41 %
(2013:) 48 % (14:59)
Max.(03:34)
93 %
(2013:) 93 % (06:26)
Durchschnitt
71 %
(2013:) 77 %
Absolute Aussen-Feuchte: 6,84 g/m³
Lüften: Sie können unbesorgt lüften.
Taupunkt aktuell
5,6 °C
Min.(02:37)
2,7 °C
Max.(15:26)
6,2 °C
Durchschnitt
4,3 °C
Luftdruck
aktuell
1015,1 hPa
-2,2 hPa/3h
Tendenz: fallend
Min.(18:03)
1015,1 hPa
(2013:) 1019,2 hPa (23:45)
Max.(08:33)
1020,6 hPa
(2013:) 1024,8 hPa (09:15)
Durchschnitt
1018,7 hPa
(2013:) 1022,3 hPa
-0,3 hPa/1h -1,0 hPa/2h -4,2 hPa/6h -4,2 hPa/12h -4,1 hPa/24h
UV-Index aktuell
0,0 UV-I
Belastung:none
Max.(11:16)
0,6 UV-I
Durchschnitt
0,6 UV-I
Solarstrahlung aktuell
26 W/m²
Max.(11:25)
681 W/m²
Durchschnitt
358 W/m²
mögl. Gesamtleistung:
4343 W/m²
Evapotranspiration Aktuell: 0,000 mm
Tag: 1,753 mm
Wettervorhersage Regen+veränderlich
Wettervorhersage VantagePro

Klick für 4-Tages-Vorhersage
Zunehmende Bewölkung und kühler. Niederschläge möglich und windig in den nächsten 6 Stunden.
Schneefallgrenze ~ 2080 m (berechnet)
Wolkenuntergrenze ~ 1418 m (berechnet)
Horizontsichtweite ~ 11-15 km (berechnet)
Windchill aktuell
14,8 °C
Min.(02:51)
3,9 °C
Max.(15:55)
17,7 °C
Durchschnitt
10,0 °C
Wind-Böen aktuell
0,0 km/h (0 Bft)
=
Max.(00:01)
- - 0,0 km/h (0 Bft)
(2013:) 11,3 km/h (15:50)
Durchschnitt
0,0 km/h (0 Bft)
(2013:) 0,9 km/h
Windgeschwindigkeit aktuell
0,0 km/h (0 Bft)
=
Max.(00:01)
SW 0,0 km/h (0 Bft)
(2013:) 8,0 km/h (11:12)
Durchschnitt
0,0 km/h (0 Bft)
(2013:) 0,6 km/h
Windrichtung 41 ° / NO dominierend
SW
Windrichtung Windböen 0 ° / - -
Seegang 0 - glatte See
letzter Frost Erster Frost: - - -
Letzter Frost: 06:16 18.04.2014
Dauer: 2 Stunden, 9 Minuten
  (ab 04:07 18.04.2014)

Erster Frosttag im letzten Jahr: 04.11.2013    Erster Frosttag im vorletzten Jahr 27.10.2012
Letzter Frosttag in diesem Jahr 18.04.2014    Letzter Frosttag im letzten Jahr 08.04.2013
Niederschlag
Klick für Regenradar Bayern
letzte Std. 0,0 mm
letzten 24 Std. 6,3 mm
aktueller Tag 6,3 mm
Gestern 6,4 mm
aktuelle Woche 6,3 mm
aktueller Monat 77,0 mm
letztes Monat 132,1 mm
September Vorjahr 101,1 mm
aktuelles Jahr 704,3 mm
Vorjahr 968,3 mm
Regentage / Jahr 134 Tage
Regentage / Vorjahr 152 Tage
durchschnittlich im September 102,5 mm
Das bedeutet bisher: -25,5 mm
Letzter Niederschlag 00:03 23.09.2014
Es hat also seit 18 h, 15 min nicht mehr geregnet
Schneehöhe 0,0 cm
Mond
Alter des Mondes29 Tage, 0 Stunden, 1 Minute
Mondaufgang06:12
Mondzenit12:29
Monduntergang18:38
Mondphase 0%
(0% = Neumond, 100% = Vollmond)
letztes Viertel21:13    15. Oktober 2014
erstes Viertel21:33    1. Oktober 2014
nächster Vollmond12:51    8. Oktober 2014
nächster Neumond08:14    24. September 2014
Sonne
Sonnenaufgang gestern07:00    22. September 2014
Sonnenaufgang07:02
Sonnenzenit13:06
Sonnenuntergang19:10
Sonnenaufgang morgen07:03    24. September 2014
Sonnenuntergang morgen19:08    24. September 2014
Tageslänge12:08
Bewölkungsgradstark bewölkt
Sonnenhöchststand42,103 °
Sichtweite11-15 km
Elevation8,008 °
Azimuth-80,747 °
Tagessonnenstunden7:05 Stunden
Wochensonnenstunden2:04 Stunden
Monatssonnenstunden77:32 Stunden
Jahressonnenstunden1194:52 Stunden
Die dargestellten Werte repräsentieren die Daten des aktuellen Tages! Der Luftdruck ist auf Meereshöhe bezogen!
Die Mond-/Sonnen-Daten beziehen sich auf die Standortkoordinaten von 47° 45' 25" Nord  -  11° 22' 5" Ost
Zeit --> Mittel Europäische Sommer Zeit
Die Wettervorhersage wurde berechnet - ohne Gewähr!


Jahres-Eistage (Tmax < 0°C) 0 Vorjahres-Eistage (Tmax < 0°C) 12
Jahres-Frosttage (Tmin <= 0°C) 53 Vorjahres-Frosttage (Tmin <= 0°C) 104
Kalte Tage des Jahres (Tmax < 10°C) 51 Kalte Tage des Vorjahres (Tmax < 10°C) 131
Jahres-Sommertage (Tmax >= 25°C) 48 Vorjahres-Sommertage (Tmax >= 25°C) 62
Heiße Tage des Jahres (Tmax >= 30°C) 12 Heiße Tage Vorjahr (Tmax >= 30°C) 22

Die Jahresanzahlen gelten immer für den Zeitraum 01.01. bis 31.12. des laufenden Jahres.
Sie sind also nur bedingt vergleichbar, können aber einen Anhalt geben ob das Jahr kühler oder wärmer als das vorherige wird.

Monats-Eistage (Tmax < 0°C) 0 Monats-Eistage Vorjahr (Tmax < 0°C) 0
Monats-Frosttage (Tmin <= 0°C) 0 Monats-Frosttage Vorjahr(Tmin <= 0°C) 0
Kalte Tage des Monats(Tmax < 10°C) 1 Kalte Tage des Monats Vorjahr (Tmax < 10°C) 1
Monats-Sommertage (Tmax >= 25°C) 7 Monats-Sommertage Vorjahr (Tmax >= 25°C) 5
Heiße Tage des Monats (Tmax >= 30°C) 0 Heiße Tage des Monats Vorjahr (Tmax >= 30°C) 0

Mit diesen Zahlen kann man sehr gut den jeweiligen aktuellen Monat und den des Vorjahrs vergleichen.

Durchschnitts-Temperatur des aktuellen Monats 14,75 °C
Standardabweichung des Monats +0,63
Normaltemperatur Jahr 9,2 °C
Durchschnitts-Temperatur des aktuellen Jahres 11,20 °C

          Aussen-      Aussen                                                                          Wind         Sonnen        Sonnen
Zeit     tempera.      Feuchte     Luftdruck      Taupunkt     Windchill     Regen        Wind       richtung     Elevation      azimuth
----------------------------------------------------------------------------------------------------------------------------------------
00:01      6,7 °C         83 %     1019,2 hPa      4,0 °C        6,7 °C      0,0 mm     0,0 km/h           SW     -40,058 °   -158,179 °
01:00      6,0 °C         86 %     1019,3 hPa      3,8 °C        6,0 °C      0,0 mm     0,0 km/h           SW     -42,161 °   -177,605 °
02:00      4,6 °C         89 %     1019,1 hPa      2,9 °C        4,6 °C      0,0 mm     0,0 km/h           SW     -40,837 °    162,395 °
03:00      3,9 °C         92 %     1019,2 hPa      2,7 °C        3,9 °C      0,0 mm     0,0 km/h           SW     -36,298 °    144,060 °
04:00      4,8 °C         93 %     1018,6 hPa      3,8 °C        4,8 °C      0,0 mm     0,0 km/h           SW     -29,319 °    128,220 °
05:00      5,4 °C         92 %     1018,8 hPa      4,2 °C        5,4 °C      0,0 mm     0,0 km/h           SW     -20,731 °    114,617 °
06:00      5,7 °C         90 %     1018,8 hPa      4,2 °C        5,7 °C      0,0 mm     0,0 km/h           SW     -11,195 °    102,550 °
07:00      5,8 °C         90 %     1019,4 hPa      4,3 °C        5,8 °C      0,0 mm     0,0 km/h           SW      -1,209 °     91,271 °
08:00      5,8 °C         90 %     1019,6 hPa      4,3 °C        5,8 °C      0,0 mm     0,0 km/h           SW       8,821 °     80,073 °
09:00      7,1 °C         87 %     1020,6 hPa      5,1 °C        7,1 °C      0,0 mm     0,0 km/h           SW      18,500 °     68,257 °
10:00      9,1 °C         76 %     1020,5 hPa      5,1 °C        9,1 °C      0,0 mm     0,0 km/h           SW      27,358 °     55,084 °
11:00     12,3 °C         59 %     1019,5 hPa      4,5 °C       12,3 °C      0,0 mm     0,0 km/h           SW      34,777 °     39,825 °
12:00     14,6 °C         52 %     1019,7 hPa      4,9 °C       14,6 °C      0,0 mm     0,0 km/h         N-NO      39,958 °     22,065 °
13:00     14,7 °C         48 %     1019,1 hPa      3,8 °C       14,7 °C      0,0 mm     0,0 km/h         N-NW      42,081 °      2,333 °
14:00     16,3 °C         46 %     1018,6 hPa      4,7 °C       16,3 °C      0,0 mm     0,0 km/h         W-NW      40,717 °    -17,631 °
15:00     16,9 °C         45 %     1017,8 hPa      4,9 °C       16,9 °C      0,0 mm     0,0 km/h            N      36,147 °    -35,919 °
16:00     17,7 °C         42 %     1016,8 hPa      4,6 °C       17,7 °C      0,0 mm     0,0 km/h         O-SO      29,145 °    -51,714 °
17:00     16,2 °C         47 %     1015,6 hPa      4,9 °C       16,2 °C      0,0 mm     0,0 km/h            O      20,537 °    -65,282 °
18:00     15,7 °C         48 %     1015,2 hPa      4,7 °C       15,7 °C      0,0 mm     0,0 km/h           NO      10,982 °    -77,321 °
----------------------------------------------------------------------------------------------------------------------------------------
Durch.    10,0 °C         71 %     1018,7 hPa      4,3 °C       10,0 °C      0,0 mm     0,0 km/h

Min.       3,9 °C         41 %     1015,1 hPa      2,7 °C        3,9 °C      0,0 mm     0,0 km/h
Zeit      02:51         15:29       18:03         02:37          02:51       00:01        00:01

Max.      17,7 °C         93 %     1020,6 hPa      6,2 °C       17,7 °C      6,3 mm     0,0 km/h
Zeit      15:55         03:34       08:33         15:26          15:55       00:03        00:01



Grafische Darstellung (Zum Vergrößern einfach Doppelklick auf die Grafik):

Erzeugt mit V2.97.10 von Werner Krenn


Tabellarische 24-Stundenübersicht: Aktuell


Mondphase:

Letztes Update:
23.04.2006
© by B2-Design

© 1999-2013 Werner Krenn / Mischa Thurnherr - Wetterstation Bedien- und Auswertesoftware - V2.97.10

Powered by Hier klicken!